This is the latest recevied weather packets stored in our database for station/object W2OBX. If no packets are shown the sender has not sent any weather packets the latest 10 day(s).
| Time | Temp. | Humidity | Pressure | Rain* | Wind** | Luminosity | Snow |
|---|---|---|---|---|---|---|---|
| 1777759485 | 16.11° C | 40% | 1014.7 hPa | 0 mm | - | 54 W/m² | - |
| 1777759183 | 16.11° C | 38% | 1014.8 hPa | 0 mm | - | 62 W/m² | - |
| 1777758880 | 15.56° C | 38% | 1014.7 hPa | 0 mm | - | 76 W/m² | - |
| 1777758577 | 15.56° C | 39% | 1014.8 hPa | 0 mm | - | 62 W/m² | - |
| 1777758273 | 15.56° C | 38% | 1014.7 hPa | 0 mm | - | 54 W/m² | - |
| 1777757971 | 15.56° C | 38% | 1014.8 hPa | 0 mm | - | 47 W/m² | - |
| 1777757667 | 16.11° C | 40% | 1014.5 hPa | 0 mm | - | 54 W/m² | - |
| 1777757366 | 16.67° C | 37% | 1014.5 hPa | 0 mm | - | 48 W/m² | - |
| 1777757065 | 16.67° C | 38% | 1014.6 hPa | 0 mm | - | 58 W/m² | - |
| 1777756762 | 16.67° C | 37% | 1014.5 hPa | 0 mm | - | 69 W/m² | - |
| 1777756457 | 16.67° C | 38% | 1014.3 hPa | 0 mm | - | 71 W/m² | - |
| 1777756155 | 16.67° C | 38% | 1014.4 hPa | 0 mm | - | 224 W/m² | - |
| 1777755852 | 16.11° C | 37% | 1014.4 hPa | 0 mm | - | 78 W/m² | - |
| 1777755549 | 16.11° C | 38% | 1014.4 hPa | 0 mm | - | 131 W/m² | - |
| 1777755245 | 16.11° C | 40% | 1014.4 hPa | 0 mm | - | 83 W/m² | - |
| 1777754942 | 16.67° C | 38% | 1014.5 hPa | 0 mm | - | 46 W/m² | - |
| 1777754639 | 16.11° C | 38% | 1014.4 hPa | 0 mm | - | 311 W/m² | - |
| 1777754336 | 16.11° C | 37% | 1014.5 hPa | 0 mm | - | 415 W/m² | - |
| 1777754034 | 16.67° C | 36% | 1014.4 hPa | 0 mm | - | 71 W/m² | - |
| 1777753729 | 16.67° C | 40% | 1014.4 hPa | 0 mm | - | 73 W/m² | - |
| 1777753427 | 16.11° C | 37% | 1014.4 hPa | 0 mm | - | 117 W/m² | - |
| 1777753125 | 16.67° C | 34% | 1014.3 hPa | 0 mm | - | 76 W/m² | - |
| 1777752821 | 16.67° C | 35% | 1014.4 hPa | 0 mm | - | 54 W/m² | - |
| 1777752517 | 17.78° C | 38% | 1014.3 hPa | 0 mm | - | 61 W/m² | - |
| 1777752213 | 17.78° C | 35% | 1014.3 hPa | 0 mm | - | 125 W/m² | - |
* Rain latest hour (hover to see other rain measurements)
** Current wind speed in m/s (hover to see current wind gust speed)